GRACE-1

Last updated on Sat Mar 10 2018 11:49:19 GMT+0000 (Coordinated Universal Time)

1 27391U 02012A 18068.91646861 .07233816 -11624-5 29177-3 0 9990 2 27391 88.9490 280.8971 0006346 277.5506 193.5554 16.43427109218648

Satellite not in orbit